When you browse on this site, cookies collect data to enhance your experience and personalize the content and advertising you see.
Visit our Privacy Policy to learn more. By continuing to use the site, you agree to this use of cookies and data.
  • en France
  • Liste des pays
  • À 7 jours
  • Température de l'eau
  • Carte satellitaire
  • Carte météo
  • Widgets météo
  • user-avatar
    Se connecter

    Météo par heure à Etchmiadzin

    Ce jour, 24 Janvier, Jeudi

    Heure Température Précipitation Vent Pression Humidité
    00:00 -1°C° 0 mm 2 m/s 689 mmHg 58%
    01:00 -1°C° 0 mm 2 m/s 689 mmHg 58%
    02:00 -2°C° 0 mm 2 m/s 689 mmHg 58%
    03:00 -2°C° 0 mm 2 m/s 689 mmHg 58%
    04:00 -2°C° 0 mm 2 m/s 689 mmHg 58%
    05:00 -2°C° 0 mm 2 m/s 689 mmHg 58%
    06:00 -2°C° 0 mm 2 m/s 689 mmHg 57%
    07:00 -1°C° 0 mm 2 m/s 689 mmHg 55%
    08:00 -1°C° 0 mm 2 m/s 689 mmHg 52%
    09:00 +1°C° 0 mm 2 m/s 689 mmHg 50%
    10:00 +2°C° 0 mm 2 m/s 689 mmHg 48%
    11:00 +3°C° 0 mm 3 m/s 688 mmHg 46%
    12:00 +4°C° 0 mm 3 m/s 688 mmHg 44%
    13:00 +4°C° 0 mm 3 m/s 688 mmHg 44%
    14:00 +4°C° 0 mm 3 m/s 687 mmHg 43%
    15:00 +5°C° 0 mm 3 m/s 687 mmHg 43%
    16:00 +4°C° 0 mm 3 m/s 687 mmHg 45%
    17:00 +3°C° 0 mm 3 m/s 687 mmHg 47%
    18:00 +2°C° 0 mm 3 m/s 687 mmHg 50%
    19:00 +1°C° 0 mm 3 m/s 687 mmHg 51%
    20:00 +2°C° 0 mm 2 m/s 687 mmHg 52%
    21:00 +2°C° 0 mm 2 m/s 687 mmHg 53%
    22:00 +1°C° 0 mm 2 m/s 687 mmHg 54%
    23:00 +1°C° 0 mm 2 m/s 687 mmHg 54%

    Demain, 25 Janvier, Vendredi

    Heure Température Précipitation Vent Pression Humidité
    00:00 +1°C° 0 mm 2 m/s 687 mmHg 55%
    01:00 +1°C° 0 mm 2 m/s 687 mmHg 55%
    02:00 +1°C° 0 mm 2 m/s 686 mmHg 55%
    03:00 +1°C° 0 mm 2 m/s 686 mmHg 55%
    04:00 +1°C° 0 mm 2 m/s 686 mmHg 55%
    05:00 +1°C° 0 mm 2 m/s 686 mmHg 56%
    06:00 +1°C° 0 mm 2 m/s 685 mmHg 57%
    07:00 +2°C° 0 mm 2 m/s 685 mmHg 55%
    08:00 +2°C° 0 mm 2 m/s 685 mmHg 54%
    09:00 +3°C° 0 mm 2 m/s 686 mmHg 53%
    10:00 +3°C° 0.2 mm 2 m/s 685 mmHg 56%
    11:00 +3°C° 0.2 mm 2 m/s 685 mmHg 59%
    12:00 +3°C° 0.2 mm 2 m/s 684 mmHg 62%
    13:00 +4°C° 0.1 mm 2 m/s 684 mmHg 62%
    14:00 +4°C° 0.1 mm 2 m/s 684 mmHg 62%
    15:00 +4°C° 0.1 mm 2 m/s 684 mmHg 63%
    16:00 +4°C° 0 mm 2 m/s 684 mmHg 65%
    17:00 +3°C° 0 mm 2 m/s 685 mmHg 67%
    18:00 +2°C° 0 mm 2 m/s 685 mmHg 69%
    19:00 +2°C° 0 mm 2 m/s 686 mmHg 68%
    20:00 +2°C° 0 mm 2 m/s 686 mmHg 68%
    21:00 +1°C° 0 mm 2 m/s 686 mmHg 67%
    22:00 +1°C° 0 mm 2 m/s 687 mmHg 67%
    23:00 +1°C° 0 mm 2 m/s 687 mmHg 67%

    Après-demain, 26 Janvier, Samedi

    Heure Température Précipitation Vent Pression Humidité
    00:00 +1°C° 0 mm 2 m/s 687 mmHg 67%
    01:00 +1°C° 0 mm 2 m/s 687 mmHg 66%
    02:00 +1°C° 0 mm 2 m/s 687 mmHg 66%
    03:00 -1°C° 0 mm 2 m/s 686 mmHg 66%
    04:00 -1°C° 0 mm 2 m/s 686 mmHg 65%
    05:00 -1°C° 0 mm 2 m/s 686 mmHg 64%
    06:00 -1°C° 0 mm 2 m/s 686 mmHg 63%
    07:00 +1°C° 0 mm 2 m/s 686 mmHg 61%
    08:00 +2°C° 0 mm 2 m/s 686 mmHg 58%
    09:00 +3°C° 0 mm 2 m/s 687 mmHg 56%
    10:00 +4°C° 0 mm 2 m/s 686 mmHg 53%
    11:00 +4°C° 0 mm 3 m/s 686 mmHg 50%
    12:00 +7°C° 0 mm 3 m/s 686 mmHg 46%
    13:00 +7°C° 0 mm 3 m/s 686 mmHg 45%
    14:00 +7°C° 0 mm 3 m/s 685 mmHg 44%
    15:00 +8°C° 0 mm 3 m/s 685 mmHg 42%
    16:00 +5°C° 0 mm 3 m/s 685 mmHg 45%
    17:00 +4°C° 0 mm 3 m/s 685 mmHg 48%
    18:00 +3°C° 0 mm 3 m/s 685 mmHg 51%
    19:00 +3°C° 0 mm 3 m/s 685 mmHg 53%
    20:00 +3°C° 0 mm 3 m/s 685 mmHg 55%
    21:00 +3°C° 0 mm 3 m/s 686 mmHg 57%
    22:00 +3°C° 0 mm 3 m/s 685 mmHg 60%
    23:00 +3°C° 0 mm 2 m/s 685 mmHg 63%

    27 Janvier, Dimanche

    Heure Température Précipitation Vent Pression Humidité
    00:00 +3°C° 0 mm 2 m/s 685 mmHg 66%
    01:00 +3°C° 0 mm 2 m/s 685 mmHg 68%
    02:00 +3°C° 0 mm 2 m/s 685 mmHg 70%
    03:00 +3°C° 0 mm 2 m/s 684 mmHg 72%
    04:00 +3°C° 0 mm 2 m/s 684 mmHg 71%
    05:00 +3°C° 0 mm 2 m/s 684 mmHg 71%
    06:00 +3°C° 0 mm 2 m/s 683 mmHg 71%
    07:00 +4°C° 0.2 mm 2 m/s 683 mmHg 70%
    08:00 +5°C° 0.2 mm 2 m/s 683 mmHg 69%
    09:00 +5°C° 0.2 mm 2 m/s 683 mmHg 68%
    10:00 +5°C° 0.2 mm 3 m/s 682 mmHg 64%
    11:00 +8°C° 0.2 mm 3 m/s 682 mmHg 61%
    12:00 +9°C° 0.2 mm 3 m/s 682 mmHg 57%
    13:00 +9°C° 0.1 mm 3 m/s 681 mmHg 56%
    14:00 +10°C° 0.1 mm 3 m/s 681 mmHg 54%
    15:00 +10°C° 0.1 mm 3 m/s 680 mmHg 53%
    16:00 +9°C° 0.1 mm 3 m/s 680 mmHg 56%
    17:00 +8°C° 0.1 mm 3 m/s 680 mmHg 60%
    18:00 +7°C° 0.1 mm 3 m/s 681 mmHg 63%
    19:00 +7°C° 0 mm 3 m/s 681 mmHg 65%
    20:00 +7°C° 0 mm 3 m/s 681 mmHg 66%
    21:00 +6°C° 0 mm 2 m/s 681 mmHg 68%
    22:00 +6°C° 0 mm 2 m/s 681 mmHg 69%
    23:00 +6°C° 0 mm 2 m/s 681 mmHg 70%

    28 Janvier, Lundi

    Heure Température Précipitation Vent Pression Humidité
    00:00 +6°C° 0 mm 2 m/s 681 mmHg 71%
    01:00 +5°C° 0.1 mm 3 m/s 681 mmHg 71%
    02:00 +4°C° 0.1 mm 3 m/s 681 mmHg 72%
    03:00 +4°C° 0.1 mm 3 m/s 681 mmHg 73%
    04:00 +4°C° 0.1 mm 3 m/s 682 mmHg 73%
    05:00 +4°C° 0.1 mm 3 m/s 682 mmHg 73%
    06:00 +4°C° 0.1 mm 3 m/s 682 mmHg 73%
    07:00 +5°C° 0 mm 3 m/s 682 mmHg 70%
    08:00 +5°C° 0 mm 3 m/s 682 mmHg 66%
    09:00 +7°C° 0 mm 3 m/s 682 mmHg 62%
    10:00 +8°C° 0 mm 3 m/s 682 mmHg 57%
    11:00 +9°C° 0 mm 2 m/s 681 mmHg 52%
    12:00 +10°C° 0 mm 2 m/s 681 mmHg 47%
    13:00 +9°C° 0.1 mm 2 m/s 680 mmHg 47%
    14:00 +9°C° 0.1 mm 3 m/s 680 mmHg 47%
    15:00 +9°C° 0.1 mm 3 m/s 680 mmHg 47%
    16:00 +8°C° 0.1 mm 2 m/s 680 mmHg 48%
    17:00 +7°C° 0.1 mm 2 m/s 680 mmHg 49%
    18:00 +6°C° 0.1 mm 2 m/s 680 mmHg 51%
    19:00 +6°C° 0 mm 2 m/s 681 mmHg 51%
    20:00 +6°C° 0 mm 2 m/s 681 mmHg 51%
    21:00 +5°C° 0 mm 2 m/s 681 mmHg 51%
    22:00 +5°C° 0 mm 2 m/s 681 mmHg 52%
    23:00 +5°C° 0 mm 2 m/s 682 mmHg 53%

    29 Janvier, Mardi

    Heure Température Précipitation Vent Pression Humidité
    00:00 +4°C° 0 mm 2 m/s 682 mmHg 55%
    01:00 +5°C° 0 mm 1 m/s 682 mmHg 58%
    02:00 +4°C° 0 mm 1 m/s 682 mmHg 60%
    03:00 +4°C° 0 mm 1 m/s 683 mmHg 63%
    04:00 +3°C° 0.1 mm 1 m/s 683 mmHg 64%
    05:00 +3°C° 0.1 mm 1 m/s 684 mmHg 64%
    06:00 +3°C° 0.1 mm 1 m/s 684 mmHg 65%
    07:00 +4°C° 0 mm 1 m/s 685 mmHg 62%
    08:00 +4°C° 0 mm 1 m/s 685 mmHg 60%
    09:00 +5°C° 0 mm 1 m/s 686 mmHg 58%
    10:00 +6°C° 0 mm 1 m/s 686 mmHg 54%
    11:00 +6°C° 0 mm 2 m/s 686 mmHg 50%
    12:00 +7°C° 0 mm 2 m/s 687 mmHg 47%
    13:00 +7°C° 0 mm 2 m/s 687 mmHg 45%
    14:00 +7°C° 0 mm 2 m/s 687 mmHg 43%
    15:00 +8°C° 0 mm 2 m/s 687 mmHg 41%
    16:00 +7°C° 0 mm 2 m/s 688 mmHg 44%
    17:00 +6°C° 0 mm 2 m/s 689 mmHg 47%
    18:00 +4°C° 0 mm 2 m/s 689 mmHg 50%
    19:00 +4°C° 0 mm 2 m/s 690 mmHg 51%
    20:00 +3°C° 0 mm 2 m/s 690 mmHg 52%
    21:00 +3°C° 0 mm 2 m/s 691 mmHg 53%
    22:00 +2°C° 0 mm 2 m/s 691 mmHg 53%
    23:00 +2°C° 0 mm 2 m/s 691 mmHg 53%
    Voir plus